Dauntless Aviation
Greetings, Guest! To participate, [sign up for a free account] or [log in]
Airports Europe France
LFIY

Saint Jean d'Angely

FRANCE

Airport Info
Edit

Location

Latitude / Longitude: 45°57'59"N / 0°31'31"W
  45°57.984'N / 0°31.518'W
  45.9664 / -0.5253

Runway Information

Runway 10 /28

Dimensions: 2789 x 164 ft.
Surface: U
 
Runway 10
Runway 28
Latitude: 45.966636 45.965728
Longitude: -0.528086 -0.518369
Elevation: 243 ft. 243 ft.
Runway true heading: 95.7 275.7
 

Instrument Procedures

IAPs (Instrument Approach Procedures)

  Visual Approch Chart
Satellite photo at:
Airport distance calculator
From:
Weather Reports

METAR

LFBG
20.0nm SE
LFBG 301200Z AUTO 27012KT 9999 FEW037 OVC086 21/12 Q1019
LFBH
27.2nm W
LFBH 301200Z AUTO 23008KT 190V270 CAVOK 19/13 Q1019
LFBU
34.5nm E
LFBU 301200Z AUTO 17004KT 120V210 CAVOK 17/08 Q1019

TAF

LFBG
20.0nm SE
TAF LFBG 300500Z 3006/3106 19005KT 9999 BKN030 TEMPO 3006/3009 BKN006 BKN015 BECMG 3011/3013 22010KT SCT025 BKN050 BECMG 3018/3020 SCT025 BECMG 3101/3103 0600 FG OVC003
LFBH
27.2nm W
TAF LFBH 301100Z 3012/3112 26010KT 9999 BKN025 BECMG 3014/3016 CAVOK BECMG 3021/3024 BKN015 BECMG 3109/3112 22015G25KT
LFBU
34.5nm E
TAF LFBU 301100Z 3012/3112 22008KT 9999 BKN030 BECMG 3016/3018 CAVOK PROB40 TEMPO 3103/3107 3000 BR BKN005 BECMG 3107/3109 BKN020 BECMG 3109/3112 BKN040
Safelog

 

Dauntless Aviation

© 2007-2015 Dauntless Aviation, all rights reserved
Information provided via PilotNav comes from a variety of official and unofficial data sources. As errors are possible, do not use PilotNav for primary flight planning purposes. Verify any information that you receive via PilotNav with current and canonical charts and other official documents. The material in this database is subject to database copyrights held by Dauntless Aviation and may not be copied without the express permission of Dauntless Aviation - licenses for use of part of all of this data are available for purchase; enquire via the Dauntless Aviation helpdesk. A number of mechanisms and markers exist in the database to protect against and identify infringement / copyright. Automated queries against this website are stictly prohibited, and all activity is logged and analyzed.